• In Latvia
  • List of Countries
  • For 7 days
  • Water Temperature
  • Satellite Maps
  • Weather Map
  • Weather Widgets
  • user-avatar
    Login

    Hourly Weather Matlock

    Today, 22 June, Friday

    Time Temperature Precipitation Wind Pressure Humidity
    00:00 +9°C° 0 mm 3 mps 756 mmHg 80%
    01:00 +8°C° 0 mm 3 mps 756 mmHg 82%
    02:00 +8°C° 0 mm 3 mps 756 mmHg 83%
    03:00 +8°C° 0 mm 3 mps 756 mmHg 84%
    04:00 +8°C° 0 mm 3 mps 756 mmHg 82%
    05:00 +9°C° 0 mm 3 mps 756 mmHg 80%
    06:00 +10°C° 0 mm 3 mps 756 mmHg 78%
    07:00 +11°C° 0 mm 3 mps 756 mmHg 71%
    08:00 +12°C° 0 mm 3 mps 757 mmHg 64%
    09:00 +14°C° 0 mm 3 mps 757 mmHg 58%
    10:00 +16°C° 0 mm 3 mps 757 mmHg 54%
    11:00 +17°C° 0 mm 3 mps 757 mmHg 50%
    12:00 +18°C° 0 mm 3 mps 757 mmHg 47%
    13:00 +18°C° 0 mm 3 mps 756 mmHg 47%
    14:00 +18°C° 0 mm 3 mps 756 mmHg 48%
    15:00 +19°C° 0 mm 3 mps 756 mmHg 48%
    16:00 +18°C° 0 mm 3 mps 756 mmHg 53%
    17:00 +18°C° 0 mm 3 mps 756 mmHg 57%
    18:00 +17°C° 0 mm 3 mps 756 mmHg 61%
    19:00 +14°C° 0 mm 3 mps 756 mmHg 65%
    20:00 +13°C° 0 mm 3 mps 756 mmHg 69%
    21:00 +11°C° 0 mm 3 mps 756 mmHg 72%
    22:00 +10°C° 0 mm 3 mps 756 mmHg 73%
    23:00 +10°C° 0 mm 3 mps 756 mmHg 74%

    Tomorrow, 23 June, Saturday

    Time Temperature Precipitation Wind Pressure Humidity
    00:00 +9°C° 0 mm 3 mps 756 mmHg 75%
    01:00 +9°C° 0 mm 3 mps 755 mmHg 77%
    02:00 +8°C° 0 mm 3 mps 755 mmHg 80%
    03:00 +8°C° 0 mm 3 mps 755 mmHg 82%
    04:00 +9°C° 0 mm 3 mps 755 mmHg 80%
    05:00 +10°C° 0 mm 3 mps 755 mmHg 79%
    06:00 +11°C° 0 mm 3 mps 755 mmHg 77%
    07:00 +12°C° 0 mm 3 mps 755 mmHg 72%
    08:00 +14°C° 0 mm 4 mps 755 mmHg 66%
    09:00 +15°C° 0 mm 4 mps 755 mmHg 61%
    10:00 +17°C° 0 mm 4 mps 755 mmHg 59%
    11:00 +18°C° 0 mm 4 mps 755 mmHg 57%
    12:00 +19°C° 0 mm 4 mps 755 mmHg 55%
    13:00 +19°C° 0 mm 4 mps 754 mmHg 55%
    14:00 +19°C° 0 mm 4 mps 754 mmHg 54%
    15:00 +20°C° 0 mm 4 mps 754 mmHg 54%
    16:00 +19°C° 0 mm 4 mps 754 mmHg 57%
    17:00 +18°C° 0 mm 4 mps 753 mmHg 59%
    18:00 +18°C° 0 mm 3 mps 753 mmHg 62%
    19:00 +16°C° 0 mm 3 mps 753 mmHg 66%
    20:00 +13°C° 0 mm 3 mps 753 mmHg 69%
    21:00 +13°C° 0 mm 2 mps 754 mmHg 73%
    22:00 +12°C° 0 mm 2 mps 753 mmHg 75%
    23:00 +12°C° 0 mm 2 mps 753 mmHg 77%

    Day after tomorrow, 24 June, Sunday

    Time Temperature Precipitation Wind Pressure Humidity
    00:00 +11°C° 0 mm 1 mps 753 mmHg 79%
    01:00 +11°C° 0 mm 1 mps 753 mmHg 81%
    02:00 +11°C° 0 mm 1 mps 753 mmHg 83%
    03:00 +11°C° 0 mm 1 mps 753 mmHg 85%
    04:00 +12°C° 0 mm 1 mps 753 mmHg 84%
    05:00 +13°C° 0 mm 1 mps 753 mmHg 82%
    06:00 +14°C° 0 mm 1 mps 753 mmHg 80%
    07:00 +15°C° 0 mm 1 mps 753 mmHg 75%
    08:00 +18°C° 0 mm 1 mps 753 mmHg 70%
    09:00 +20°C° 0 mm 1 mps 753 mmHg 65%
    10:00 +21°C° 0 mm 1 mps 753 mmHg 62%
    11:00 +22°C° 0 mm 1 mps 753 mmHg 59%
    12:00 +23°C° 0 mm 1 mps 753 mmHg 56%
    13:00 +23°C° 0 mm 1 mps 753 mmHg 56%
    14:00 +24°C° 0 mm 1 mps 753 mmHg 55%
    15:00 +24°C° 0 mm 1 mps 753 mmHg 55%
    16:00 +24°C° 0 mm 1 mps 753 mmHg 58%
    17:00 +23°C° 0 mm 1 mps 753 mmHg 61%
    18:00 +23°C° 0 mm 1 mps 753 mmHg 63%
    19:00 +21°C° 0 mm 1 mps 753 mmHg 69%
    20:00 +20°C° 0 mm 1 mps 753 mmHg 74%
    21:00 +18°C° 0 mm 1 mps 753 mmHg 79%
    22:00 +18°C° 0 mm 1 mps 753 mmHg 81%
    23:00 +16°C° 0 mm 1 mps 753 mmHg 83%

    25 June, Monday

    Time Temperature Precipitation Wind Pressure Humidity
    00:00 +15°C° 0 mm 1 mps 753 mmHg 85%
    01:00 +15°C° 0 mm 1 mps 753 mmHg 85%
    02:00 +14°C° 0 mm 1 mps 753 mmHg 86%
    03:00 +14°C° 0 mm 1 mps 753 mmHg 87%
    04:00 +15°C° 0 mm 1 mps 753 mmHg 85%
    05:00 +16°C° 0 mm 1 mps 753 mmHg 83%
    06:00 +18°C° 0 mm 1 mps 753 mmHg 81%
    07:00 +19°C° 0 mm 1 mps 753 mmHg 76%
    08:00 +21°C° 0 mm 1 mps 753 mmHg 71%
    09:00 +23°C° 0 mm 1 mps 753 mmHg 66%
    10:00 +24°C° 0 mm 1 mps 753 mmHg 63%
    11:00 +24°C° 0 mm 1 mps 753 mmHg 59%
    12:00 +25°C° 0 mm 1 mps 753 mmHg 56%
    13:00 +25°C° 0 mm 1 mps 753 mmHg 56%
    14:00 +26°C° 0 mm 1 mps 753 mmHg 56%
    15:00 +26°C° 0 mm 1 mps 753 mmHg 55%
    16:00 +25°C° 0 mm 1 mps 753 mmHg 59%
    17:00 +25°C° 0 mm 2 mps 753 mmHg 63%
    18:00 +24°C° 0 mm 2 mps 752 mmHg 66%
    19:00 +23°C° 0 mm 2 mps 753 mmHg 71%
    20:00 +20°C° 0 mm 2 mps 753 mmHg 76%
    21:00 +19°C° 0 mm 3 mps 753 mmHg 80%
    22:00 +18°C° 0 mm 2 mps 753 mmHg 83%
    23:00 +16°C° 0 mm 2 mps 753 mmHg 86%

    26 June, Tuesday

    Time Temperature Precipitation Wind Pressure Humidity
    00:00 +15°C° 0 mm 2 mps 753 mmHg 88%
    01:00 +15°C° 0 mm 2 mps 753 mmHg 89%
    02:00 +14°C° 0 mm 1 mps 753 mmHg 89%
    03:00 +14°C° 0 mm 1 mps 753 mmHg 90%
    04:00 +14°C° 0 mm 1 mps 753 mmHg 88%
    05:00 +15°C° 0 mm 1 mps 753 mmHg 86%
    06:00 +16°C° 0 mm 1 mps 753 mmHg 84%
    07:00 +17°C° 0 mm 2 mps 753 mmHg 78%
    08:00 +19°C° 0 mm 2 mps 753 mmHg 71%
    09:00 +20°C° 0 mm 2 mps 753 mmHg 65%
    10:00 +21°C° 0 mm 3 mps 753 mmHg 61%
    11:00 +22°C° 0 mm 3 mps 753 mmHg 56%
    12:00 +24°C° 0 mm 3 mps 753 mmHg 52%
    13:00 +23°C° 0 mm 4 mps 753 mmHg 52%
    14:00 +23°C° 0 mm 4 mps 752 mmHg 52%
    15:00 +23°C° 0 mm 4 mps 752 mmHg 51%
    16:00 +22°C° 0 mm 4 mps 752 mmHg 55%
    17:00 +22°C° 0 mm 4 mps 752 mmHg 58%
    18:00 +21°C° 0 mm 4 mps 752 mmHg 61%
    19:00 +19°C° 0 mm 4 mps 752 mmHg 65%
    20:00 +17°C° 0 mm 3 mps 752 mmHg 69%
    21:00 +14°C° 0 mm 3 mps 752 mmHg 73%
    22:00 +13°C° 0 mm 3 mps 753 mmHg 75%
    23:00 +12°C° 0 mm 3 mps 753 mmHg 78%

    27 June, Wednesday

    Time Temperature Precipitation Wind Pressure Humidity
    00:00 +12°C° 0 mm 2 mps 753 mmHg 80%
    01:00 +12°C° 0 mm 2 mps 753 mmHg 81%
    02:00 +10°C° 0 mm 3 mps 752 mmHg 82%
    03:00 +10°C° 0 mm 3 mps 752 mmHg 84%
    04:00 +11°C° 0 mm 3 mps 752 mmHg 81%
    05:00 +11°C° 0 mm 3 mps 752 mmHg 78%
    06:00 +12°C° 0 mm 3 mps 752 mmHg 75%
    07:00 +14°C° 0 mm 4 mps 752 mmHg 71%
    08:00 +17°C° 0 mm 4 mps 752 mmHg 66%
    09:00 +18°C° 0 mm 4 mps 752 mmHg 61%
    10:00 +20°C° 0 mm 4 mps 752 mmHg 59%
    11:00 +21°C° 0 mm 4 mps 752 mmHg 57%
    12:00 +22°C° 0 mm 4 mps 752 mmHg 55%
    13:00 +23°C° 0 mm 4 mps 752 mmHg 56%
    14:00 +23°C° 0 mm 4 mps 751 mmHg 56%
    15:00 +25°C° 0 mm 4 mps 751 mmHg 57%
    16:00 +23°C° 0 mm 4 mps 751 mmHg 61%
    17:00 +22°C° 0 mm 4 mps 751 mmHg 65%
    18:00 +21°C° 0 mm 4 mps 751 mmHg 69%
    19:00 +20°C° 0 mm 4 mps 751 mmHg 74%
    20:00 +18°C° 0 mm 4 mps 752 mmHg 79%
    21:00 +15°C° 0 mm 4 mps 752 mmHg 84%
    22:00 +14°C° 0 mm 4 mps 752 mmHg 86%
    23:00 +14°C° 0 mm 4 mps 752 mmHg 88%
    Show more